Terminal Aerodrome Forecast
Issued by NWS Spokane, WA

Home | Current Version | Previous Version | Text Only | Print | Product List | Glossary On
Versions: 1 2 3 4 5 6 7 8 9 10 11 12 13 14 15 16 17 18 19 20 21 22 23 24 25 26 27 28 29 30 31 32 33 34 35 36 37 38 39 40 41
000
FTUS46 KOTX 222331
TAFGEG
TAF
KGEG 222331Z 2300/2324 27010KT P6SM SCT250
     FM230600 15005KT P6SM BKN150
     FM231200 12006KT P6SM OVC060
     FM232100 15006KT P6SM VCSH OVC030=

USA.gov is the U.S. government's official web portal to all federal, state and local government web resources and services.